This is the latest recevied weather packets stored in our database for station/object OE3APM-13. If no packets are shown the sender has not sent any weather packets the latest 10 day(s).
| Time | Temp. | Humidity | Pressure | Rain* | Wind** | Luminosity | Snow |
|---|---|---|---|---|---|---|---|
| 1778249385 | 17.78° C | 49% | 1016.5 hPa | 0 mm | - | 775 W/m² | - |
| 1778249082 | 17.22° C | 48% | 1016.6 hPa | 0 mm | - | 854 W/m² | - |
| 1778248782 | 16.67° C | 50% | 1016.7 hPa | 0 mm | - | 854 W/m² | - |
| 1778248480 | 16.67° C | 50% | 1016.7 hPa | 0 mm | - | 302 W/m² | - |
| 1778248181 | 16.67° C | 49% | 1016.7 hPa | 0 mm | - | 190 W/m² | - |
| 1778247883 | 16.67° C | 50% | 1016.7 hPa | 0 mm | - | 199 W/m² | - |
| 1778247578 | 16.67° C | 48% | 1016.7 hPa | 0 mm | - | 165 W/m² | - |
| 1778247277 | 16.67° C | 49% | 1016.7 hPa | 0 mm | - | 165 W/m² | - |
| 1778246978 | 17.22° C | 48% | 1016.7 hPa | 0 mm | - | 188 W/m² | - |
| 1778246677 | 17.22° C | 49% | 1016.7 hPa | 0 mm | - | 193 W/m² | - |
| 1778246376 | 17.78° C | 46% | 1016.7 hPa | 0 mm | - | 591 W/m² | - |
| 1778246078 | 17.78° C | 46% | 1016.8 hPa | 0 mm | - | 193 W/m² | - |
| 1778245776 | 18.33° C | 44% | 1016.8 hPa | 0 mm | - | 322 W/m² | - |
| 1778245474 | 18.33° C | 46% | 1016.7 hPa | 0 mm | - | 789 W/m² | - |
| 1778245174 | 18.33° C | 46% | 1016.8 hPa | 0 mm | - | 803 W/m² | - |
| 1778244874 | 18.89° C | 44% | 1016.8 hPa | 0 mm | - | 846 W/m² | - |
| 1778244573 | 18.33° C | 47% | 1016.8 hPa | 0 mm | - | 846 W/m² | - |
| 1778244270 | 18.33° C | 47% | 1016.8 hPa | 0 mm | - | 868 W/m² | - |
| 1778243973 | 18.33° C | 49% | 1016.8 hPa | 0 mm | - | 861 W/m² | - |
| 1778243666 | 18.33° C | 46% | 1016.9 hPa | 0 mm | - | 835 W/m² | - |
| 1778243366 | 18.33° C | 48% | 1016.9 hPa | 0 mm | - | 858 W/m² | - |
| 1778243067 | 18.33° C | 44% | 1017 hPa | 0 mm | - | 584 W/m² | - |
| 1778242766 | 18.33° C | 45% | 1017 hPa | 0 mm | - | 958 W/m² | - |
| 1778242465 | 18.33° C | 47% | 1017 hPa | 0 mm | - | 900 W/m² | - |
| 1778242166 | 18.33° C | 47% | 1016.9 hPa | 0 mm | - | 888 W/m² | - |
* Rain latest hour (hover to see other rain measurements)
** Current wind speed in m/s (hover to see current wind gust speed)